STARLINK-1260, 45404

Orbit data source: Space-Track

STARLINK-1260, 45404 is a payload satellite owned by SpaceX/Seattle (US) in LEO that was launched on Wed, 18 Mar 2020 UTC via an FALCON 9 launch vehicle from the Air Force Eastern Test Range (AFETR). Payload-class satellites include a variety of spacecraft equipped with specific instruments for various scientific and technological missions. These include communications satellites like Starlink; space stations such as the ISS; scientific satellites like the Hubble; Earth observation satellites from companies like Planet Labs, Umbra, and HawkEye 360; GPS; miniature CubeSats for education and research; and military/defense satellites.

Loading next visibility...
Identifier
45404, 2020-019AW
Orbit
LEO
Country
Flag of USUS
Related business
Manufacturer
SpaceX/Seattle
Mission
Partially operational Commercial Communications
Bus & Motor
STARLINK, Unknown motor
Mass
260 kg wet, ~248 kg dry
Launch date (UTC)
2020-03-18 (7 years ago)
Launch vehicle
FALCON 9
Launch site
Air Force Eastern Test Range (AFETR)
Object type
Payload
Rocket body
Debris
Shape & HBR
Box + 1 Pan, 10.1 m
Radar Cross Section
13.562 m², Large (>1 m²)

Expand to show TLE details & history
Last TLE update: 16 hours ago

TLE from 16 hours ago
0 STARLINK-1260
1 45404U 20019AW  26267.01591111  .00043752  00000-0  85125-3 0  9996
2 45404  53.1509 276.1182 0004008  46.0613 314.0725 15.47168472360502
Epoch: 2026-09-24T00:22Z
TLE epoch observation values (Epoch: 2026-09-24T00:22:54.719Z)
Latitude
-0.00006°
Longitude
-92.46858°
Altitude
424.023 km
Speed
7.659 km/s
True Right ascension
18h 24m 28s
True Declination
0° 00' 00"
Sunlit
Object was in daylight at epoch
Visualization orbit readout
Latitude
Unknown
Longitude
Unknown
Altitude
Unknown
Speed
Unknown
Apparent Right ascension
Unknown
Apparent Declination
Unknown
Sunlit
N/A
Visualization observer readout
Local Sidereal Time
09:54:09
Azimuth
Unknown
Elevation
Unknown
Doppler factor
Unknown
Orbital elements
Apogee altitude
428 km
Perigee altitude
422.547 km
Semi-major axis
6,803.411 km
Eccentricity
0.0004
Inclination
53.1509°
RAAN
276.1182°
Arg. of periapsis
46.0613°
True anomaly
314.03949°
Mean anomaly
314.0725°
Eccentric anomaly
314.056°
Mean motion
3.8677 °/min
Orbital period
93.08 mins
BSTAR
0.00085125
Loading maneuver chart data...
Computing Atmospheric mass density...
Loading historical data...
Loading historical data...
Loading historical data...
Loading historical data...
Loading historical data...
Loading historical data...
Loading historical data...

Documentation

Showing up to 5 results
|